This demonstration page uses our WeatherBlox Daily Observations layout. Learn more.

Left ArrowRight Arrow

40.92945, -100.16068

Hourly Observations for June 9, 2020

Temp ( °F °C ) Dew Point ( °F °C ) Humidity (%) Winds ( mph kmh ) Pressure ( in mb ) Visibility ( mi km ) Precip ( " mm )
12:15 am 00:15 Clear 77 25.2 64 18 64 64 SSE 21 33 29.42 996 10 16.0934 0 0
12:35 am 00:35 Clear 77 25.1 64 18 65 65 SE 20 31 29.42 996 10 16.0934 0 0
12:55 am 00:55 Clear 76 24.6 64 17.7 66 66 SSE 21 33 29.42 996 10 16.0934 0 0
1:15 am 01:15 Clear 76 24.2 64 17.6 67 67 SE 18 30 29.42 996 10 16.0934 0 0
1:35 am 01:35 Clear 75 23.9 64 17.5 68 68 SE 15 24 29.42 996 10 16.0934 0 0
1:55 am 01:55 Clear 74 23.6 64 17.5 69 69 SE 14 22 29.42 996 10 16.0934 0 0
2:15 am 02:15 Clear 74 23.5 64 17.5 69 69 SE 14 22 29.41 996 10 16.0934 0 0
2:35 am 02:35 Clear 74 23.2 64 17.6 71 71 SE 14 22 29.43 996 10 16.0934 0 0
2:55 am 02:55 Clear 73 22.9 64 17.7 73 73 SE 8 13 29.43 997 10 16.0934 0 0
3:15 am 03:15 Clear 73 22.6 64 17.8 74 74 Calm 29.45 997 10 16.0934 0 0
3:35 am 03:35 Mostly Cloudy 72 22.1 65 18.2 79 79 W 3 6 29.49 998 10 16.0934 0 0
3:55 am 03:55 Mostly Cloudy 73 22.9 64 18 74 74 SSW 8 13 29.45 997 10 16.0934 0 0
4:15 am 04:15 Mostly Cloudy with Nearby Thunderstorms 73 22.6 65 18.5 78 78 WSW 5 7 29.45 997 10 16.0934 0 0
4:35 am 04:35 Cloudy with Light Thunderstorms 70 20.9 67 19.2 90 90 W 9 15 29.48 998 10 16.0934 0.18 4.572
4:55 am 04:55 Cloudy with Nearby Thunderstorms 64 18 62 16.8 93 93 N 18 30 29.51 999 10 16.0934 0.18 4.572
5:15 am 05:15 Cloudy 62 16.5 60 15.4 93 93 N 17 28 29.52 1000 10 16.0934 0 0
5:35 am 05:35 Cloudy 61 16.2 59 15.1 93 93 N 18 30 29.53 1000 10 16.0934 0 0
5:55 am 05:55 Cloudy 61 16.1 59 15.1 94 94 N 16 26 29.54 1000 10 16.0934 0 0
6:15 am 06:15 Cloudy 61 16.2 59 15.1 93 93 N 17 28 29.54 1000 10 16.0934 0 0
6:35 am 06:35 Cloudy 61 16 59 14.8 93 93 N 15 24 29.55 1001 10 16.0934 0 0
6:55 am 06:55 Cloudy 60 15.8 58 14.6 93 93 N 28 44 29.55 1001 10 16.0934 0 0
7:15 am 07:15 Cloudy with Drizzle 60 15.3 58 14.2 93 93 N 23 37 29.56 1001 10 16.0934 0 0
7:35 am 07:35 Cloudy with Light Rain 59 15 57 13.9 93 93 N 29 46 29.57 1001 10 16.0934 0 0
7:55 am 07:55 Cloudy 59 15 57 13.8 93 93 N 25 41 29.56 1001 10 16.0934 0.01 0.254
8:15 am 08:15 Cloudy 59 15.1 57 13.8 92 92 N 25 41 29.56 1001 10 16.0934 0 0
8:35 am 08:35 Cloudy 59 15 56 13.6 91 91 N 29 46 29.57 1001 10 16.0934 0 0
8:55 am 08:55 Cloudy 58 14.6 56 13.1 91 91 NNE 35 56 29.58 1002 10 16.0934 0 0
9:15 am 09:15 Cloudy 57 14 54 12.3 90 90 N 22 35 29.61 1003 7 11.26538 0 0
9:35 am 09:35 Cloudy with Drizzle 56 13.5 53 11.7 89 89 N 30 48 29.59 1002 7 11.26538 0 0
9:55 am 09:55 Cloudy 56 13.5 53 11.6 88 88 N 28 44 29.6 1002 10 16.0934 0 0
10:15 am 10:15 Cloudy 56 13.5 52 11 85 85 NNE 30 48 29.58 1002 10 16.0934 0 0
10:35 am 10:35 Cloudy 56 13.3 51 10.5 83 83 N 32 52 29.59 1002 10 16.0934 0 0
10:55 am 10:55 Cloudy 56 13.1 51 10.4 84 84 N 31 50 29.58 1002 10 16.0934 0 0
11:15 am 11:15 Cloudy 56 13.5 50 10.1 80 80 N 35 56 29.58 1002 10 16.0934 0 0
11:35 am 11:35 Cloudy 57 13.8 50 9.9 78 78 N 33 54 29.59 1002 10 16.0934 0 0
11:55 am 11:55 Cloudy 57 14 49 9.6 75 75 N 31 50 29.61 1003 10 16.0934 0 0
12:15 pm 12:15 Cloudy 57 14 50 9.8 76 76 N 33 54 29.61 1003 10 16.0934 0 0
12:35 pm 12:35 Cloudy 57 14 51 10.5 80 80 N 33 54 29.6 1002 10 16.0934 0 0
12:55 pm 12:55 Cloudy 57 13.8 52 10.9 83 83 N 32 52 29.61 1003 10 16.0934 0 0
1:15 pm 13:15 Cloudy 57 13.8 51 10.6 81 81 N 35 56 29.61 1003 10 16.0934 0 0
1:35 pm 13:35 Cloudy 57 14 52 11.1 83 83 N 20 31 29.64 1004 10 16.0934 0 0
1:55 pm 13:55 Cloudy 57 14 53 11.4 84 84 N 23 37 29.66 1004 10 16.0934 0 0
2:15 pm 14:15 Cloudy with Light Rain 56 13.1 51 10.7 86 86 NNW 23 37 29.69 1006 10 16.0934 0 0
2:35 pm 14:35 Cloudy with Light Rain 55 13 50 9.8 81 81 N 25 41 29.69 1006 10 16.0934 0.01 0.254
2:55 pm 14:55 Cloudy with Light Rain 55 12.6 50 10.1 85 85 N 30 48 29.67 1005 5 8.0467 0.04 1.016
3:15 pm 15:15 Cloudy with Light Rain 55 12.5 50 10.2 86 86 N 28 44 29.67 1005 5 8.0467 0.02 0.508
3:35 pm 15:35 Cloudy with Light Rain 55 12.5 49 9.6 83 83 N 30 48 29.68 1005 10 16.0934 0.03 0.762
3:55 pm 15:55 Cloudy with Drizzle 55 12.5 49 9.3 81 81 N 30 48 29.69 1005 10 16.0934 0.03 0.762
4:15 pm 16:15 Cloudy with Light Rain 54 12.2 49 9.3 83 83 NNW 32 52 29.68 1005 10 16.0934 0.01 0.254
4:35 pm 16:35 Cloudy with Light Rain 54 12.4 49 9.2 81 81 NNW 26 43 29.67 1005 10 16.0934 0.01 0.254
4:55 pm 16:55 Cloudy 55 12.5 48 9 79 79 NNW 32 52 29.66 1004 10 16.0934 0.01 0.254
5:15 pm 17:15 Cloudy 55 12.5 47 8.3 76 76 N 35 56 29.67 1005 10 16.0934 0 0
5:35 pm 17:35 Cloudy with Thunderstorms 55 12.8 47 8.3 74 74 NNW 30 48 29.67 1005 10 16.0934 0 0
5:55 pm 17:55 Cloudy with Light Rain 54 12.2 49 9.2 82 82 NNW 36 57 29.66 1004 10 16.0934 0 0
6:15 pm 18:15 Windy with Storms Likely 55 12.6 49 9.4 81 81 NNW 35 56 29.65 1004 10 16.0934 0 0
6:35 pm 18:35 Cloudy with Thunderstorms 53 11.8 49 9.5 86 86 NNW 36 57 29.65 1004 2.5 4.02335 0.05 1.27
6:55 pm 18:55 Cloudy 53 11.6 49 9.3 86 86 NNW 36 57 29.68 1005 1 1.60934 0.18 4.572
7:15 pm 19:15 Cloudy with Rain 52 10.9 48 9.1 89 89 NNW 23 37 29.7 1006 2.5 4.02335 0.1 2.54
7:35 pm 19:35 Cloudy with Nearby Thunderstorms 51 10.6 48 9.1 91 91 N 31 50 29.68 1005 1.25 2.011675 0.4 10.16
7:55 pm 19:55 Cloudy with Heavy Thunderstorms 52 11.1 49 9.7 91 91 NNW 16 26 29.72 1006 2 3.21868 0.55 13.97
8:15 pm 20:15 Cloudy with Heavy Thunderstorms 53 11.5 50 9.9 90 90 NNW 18 30 29.77 1008 5 8.0467 0.1 2.54
8:35 pm 20:35 Cloudy 53 11.6 50 10 90 90 NNW 28 44 29.7 1006 3 4.82802 0.22 5.588
8:55 pm 20:55 Windy with Storms Likely 53 11.9 50 10 88 88 N 21 33 29.69 1006 7 11.26538 0.27 6.858
9:15 pm 21:15 Cloudy with Light Rain 54 12 50 9.8 87 87 N 22 35 29.7 1006 10 16.0934 0.01 0.254
9:35 pm 21:35 Cloudy with Light Rain 54 12.1 49 9.7 85 85 N 24 39 29.74 1007 10 16.0934 0.01 0.254
9:55 pm 21:55 Cloudy with Light Rain 54 12 50 10 88 88 N 16 26 29.78 1009 10 16.0934 0.01 0.254
10:15 pm 22:15 Cloudy with Light Rain 54 12 50 10.1 88 88 N 14 22 29.79 1009 10 16.0934 0 0
10:35 pm 22:35 Cloudy with Light Rain 54 12.1 50 10.2 88 88 N 17 28 29.8 1009 10 16.0934 0.01 0.254
10:55 pm 22:55 Cloudy with Light Rain 54 12.1 51 10.3 89 89 N 17 28 29.82 1010 10 16.0934 0.03 0.762
11:15 pm 23:15 Cloudy with Light Rain 54 12.3 51 10.6 89 89 N 22 35 29.81 1009 10 16.0934 0 0
11:35 pm 23:35 Cloudy with Light Rain 55 12.5 51 10.7 89 89 N 22 35 29.81 1009 10 16.0934 0 0
11:55 pm 23:55 Mostly Cloudy 55 12.8 51 10.4 85 85 NNW 24 39 29.81 1009 10 16.0934 0 0

Powered by AerisWeather